Regional Weather Roundup
Issued by NWS

Home | Current Version | Previous Version | Text Only | Print | Product List | Glossary On
Versions: 1 2 3 4 5 6 7 8 9 10 11 12 13 14 15 16 17 18 19 20 21 22 23 24 25 26 27 28 29 30 31 32 33 34 35 36 37 38 39 40 41 42 43 44 45 46 47 48 49 50
000
ASUS43 KBIS 062001
RWRND

NORTH DAKOTA REGIONAL WEATHER ROUNDUP
NATIONAL WEATHER SERVICE BISMARCK ND
300 PM CDT WED MAY 06 2015

NOTE: "FAIR" INDICATES FEW OR NO CLOUDS BELOW 12,000 FEET WITH NO
SIGNIFICANT WEATHER AND/OR OBSTRUCTIONS TO VISIBILITY.


NDZ001>003-009>011-017-062100-
NORTHWEST NORTH DAKOTA

CITY           SKY/WX    TMP DP  RH WIND       PRES   REMARKS
WILLISTON      LGT RAIN  60  57  89 W5        29.69S
MINOT          CLOUDY    61  59  93 E15       29.68F FOG
MINOT AFB      CLOUDY    61  61 100 SE13      29.67F FOG
$$

NDZ018>021-031>035-040>046-062100-
SOUTHWEST NORTH DAKOTA

CITY           SKY/WX    TMP DP  RH WIND       PRES   REMARKS
BISMARCK       LGT RAIN  67  61  81 S10       29.67F
DICKINSON      LGT RAIN  61  55  81 CALM      29.65F
GARRISON         N/A     61  59  93 S6        29.67F
HETTINGER ARPT CLOUDY    62  55  77 CALM      29.66F
$$

NDZ004>008-012>016-024-026-027-054-062100-
NORTHEAST NORTH DAKOTA

CITY           SKY/WX    TMP DP  RH WIND       PRES   REMARKS
GRAND FORKS    LGT RAIN  63  60  90 SE14      29.82F FOG
GRND FRKS AFB  LGT RAIN  63  59  88 SE15      29.81F
DEVILS LAKE    CLOUDY    57  54  88 SE12      29.76F
$$

NDZ022-023-025-028>030-036>039-047>053-062100-
SOUTHEAST NORTH DAKOTA

CITY           SKY/WX    TMP DP  RH WIND       PRES   REMARKS
FARGO          LGT RAIN  65  61  87 SE13      29.81F FOG
JAMESTOWN      LGT RAIN  63  60  90 SE15      29.73F
$$



USA.gov is the U.S. government's official web portal to all federal, state and local government web resources and services.